Home > Weather > Peoria > Past weeks

Flag for USA Weather for the Past 2 Weeks in Peoria, Illinois, USA

Now
50 °F

Fog.


Feels Like: 48 °F
Forecast: 49 / 58 °F
Wind: 6 mph from Northeast

Location: Greater Peoria Regional Airport

Current Time: May 1, 2016 at 9:33:35 AM

Latest Report: May 1, 2016 at 8:54 AM


Visibility: 3 mi

Pressure: 29.95 "Hg

Humidity: 93%

Dew Point: 48 °F

Location of PeoriaLocation

Historic Weather in Peoria — Graph

°F

Peoria Temperature Yesterday

Maximum temperature yesterday: 55 °F (at 1:54 PM)
Minimum temperature yesterday: 47 °F (at 1:54 AM)
Average temperature yesterday: 51 °F

High & Low Weather Summary for the Past Weeks

 TemperatureHumidityPressure
High83 °F (Apr 25, 2:54 PM)97% (Apr 21, 9:54 PM)30.37 "Hg (Apr 21, 9:54 PM)
Low41 °F (Apr 23, 5:54 AM)21% (Apr 17, 4:54 PM)29.63 "Hg (Apr 25, 4:54 PM)
Average61 °F68%29.98 "Hg
* Reported Apr 16 7:54 AM — May 1 7:54 AM, Peoria, Weather by CustomWeather, © 2016

Note: Actual official high and low records may vary slightly from our data, if they occured in-between our weather recording intervals... More about our weather records

Advertising

Peoria Weather History for the Previous 24 Hours

Scroll right to see more
 ConditionsComfort  
Time TempWeatherWind HumidityBarometerVisibility
7:54 AM
Sun, May 1
49 °FFog.6 mph97%29.95 "Hg2 mi
6:54 AM49 °FFog.7 mph93%29.93 "Hg1 mi
6:01 AM48 °FFog.9 mph96%29.92 "Hg2 mi
4:54 AM48 °FFog.7 mph96%29.90 "Hg1 mi
3:54 AM49 °FFog.8 mph93%29.88 "Hg1 mi
2:54 AM49 °FFog.5 mph97%29.88 "Hg2 mi
1:54 AM49 °FFog.8 mph97%29.88 "Hg2 mi
12:54 AM49 °FFog.14 mph93%29.88 "Hg2 mi
11:54 PM
Sat, Apr 30
50 °FFog.8 mph93%29.87 "Hg2 mi
10:54 PM50 °FFog.13 mph93%29.85 "Hg2 mi
9:54 PM51 °FFog.17 mph92%29.84 "Hg4 mi
8:54 PM51 °FLow clouds.13 mph96%29.85 "Hg10 mi
7:54 PM52 °FLow clouds.13 mph93%29.83 "Hg10 mi
6:54 PM53 °FLow clouds.14 mph93%29.80 "Hg9 mi
5:54 PM55 °FFog.13 mph93%29.79 "Hg3 mi
4:54 PM55 °FLight rain. Fog.14 mph96%29.78 "Hg2 mi
3:54 PM55 °FLight rain. Fog.12 mph93%29.78 "Hg1 mi
2:54 PM55 °FLight rain. Fog.13 mph93%29.78 "Hg1 mi
1:54 PM55 °FLight rain. Fog.9 mph93%29.80 "Hg2 mi
12:54 PM54 °FRain. Fog.14 mph93%29.81 "Hg2 mi
11:54 AM54 °FLight rain. Fog.12 mph90%29.83 "Hg2 mi
10:54 AM52 °FLight rain. Fog.9 mph93%29.85 "Hg6 mi
9:54 AM51 °FLight rain. Fog.15 mph92%29.87 "Hg3 mi
9:04 AM50 °FRain. Fog.15 mph93%29.88 "Hg2 mi
Weather by CustomWeather, © 2016

See weather overviewHow to use our weather pages